When you browse on this site, cookies collect data to enhance your experience and personalize the content and advertising you see.
Visit our Privacy Policy to learn more. By continuing to use the site, you agree to this use of cookies and data.
  • In Netherlands
  • List of Countries
  • For 7 days
  • Water Temperature
  • Satellite Maps
  • Weather Map
  • Weather Widgets
  • user-avatar
    Login

    Hourly Weather Jambol

    Today, 18 July, Thursday

    Time Temperature Precipitation Wind Pressure Humidity
    00:00 +20°C° 0 mm 1 mps 746 mmHg 67%
    01:00 +20°C° 0 mm 1 mps 746 mmHg 67%
    02:00 +20°C° 0 mm 1 mps 746 mmHg 69%
    03:00 +20°C° 0 mm 1 mps 746 mmHg 69%
    04:00 +19°C° 0 mm 1 mps 746 mmHg 70%
    05:00 +19°C° 0 mm 1 mps 746 mmHg 70%
    06:00 +21°C° 0 mm 1 mps 746 mmHg 65%
    07:00 +23°C° 0 mm 1 mps 747 mmHg 60%
    08:00 +25°C° 0 mm 2 mps 747 mmHg 54%
    09:00 +26°C° 0 mm 2 mps 747 mmHg 49%
    10:00 +28°C° 0 mm 2 mps 747 mmHg 44%
    11:00 +30°C° 0 mm 2 mps 748 mmHg 38%
    12:00 +30°C° 0 mm 1 mps 748 mmHg 38%
    13:00 +30°C° 0 mm 1 mps 748 mmHg 38%
    14:00 +30°C° 0 mm 1 mps 748 mmHg 38%
    15:00 +29°C° 0 mm 1 mps 748 mmHg 41%
    16:00 +29°C° 0 mm 1 mps 748 mmHg 43%
    17:00 +28°C° 0 mm 2 mps 748 mmHg 46%
    18:00 +27°C° 0 mm 2 mps 748 mmHg 50%
    19:00 +25°C° 0 mm 2 mps 748 mmHg 55%
    20:00 +24°C° 0 mm 2 mps 748 mmHg 59%
    21:00 +23°C° 0 mm 2 mps 748 mmHg 63%
    22:00 +21°C° 0 mm 2 mps 749 mmHg 66%
    23:00 +20°C° 0 mm 2 mps 749 mmHg 70%

    Tomorrow, 19 July, Friday

    Time Temperature Precipitation Wind Pressure Humidity
    00:00 +21°C° 0 mm 1 mps 749 mmHg 71%
    01:00 +20°C° 0 mm 1 mps 749 mmHg 72%
    02:00 +20°C° 0 mm 1 mps 749 mmHg 72%
    03:00 +20°C° 0 mm 1 mps 750 mmHg 73%
    04:00 +19°C° 0 mm 1 mps 750 mmHg 74%
    05:00 +19°C° 0 mm 1 mps 750 mmHg 75%
    06:00 +21°C° 0 mm 1 mps 750 mmHg 68%
    07:00 +23°C° 0 mm 1 mps 750 mmHg 61%
    08:00 +25°C° 0 mm 1 mps 751 mmHg 54%
    09:00 +27°C° 0 mm 1 mps 751 mmHg 49%
    10:00 +28°C° 0 mm 1 mps 751 mmHg 43%
    11:00 +30°C° 0 mm 1 mps 751 mmHg 38%
    12:00 +30°C° 0 mm 2 mps 751 mmHg 36%
    13:00 +31°C° 0 mm 2 mps 751 mmHg 34%
    14:00 +32°C° 0 mm 2 mps 751 mmHg 32%
    15:00 +31°C° 0 mm 3 mps 750 mmHg 33%
    16:00 +32°C° 0 mm 4 mps 750 mmHg 35%
    17:00 +32°C° 0 mm 4 mps 750 mmHg 37%
    18:00 +28°C° 0 mm 4 mps 750 mmHg 45%
    19:00 +26°C° 0 mm 3 mps 751 mmHg 53%
    20:00 +24°C° 0 mm 3 mps 751 mmHg 61%
    21:00 +23°C° 0 mm 2 mps 751 mmHg 66%
    22:00 +21°C° 0 mm 2 mps 751 mmHg 72%
    23:00 +20°C° 0 mm 2 mps 752 mmHg 78%

    Day after tomorrow, 20 July, Saturday

    Time Temperature Precipitation Wind Pressure Humidity
    00:00 +20°C° 0 mm 1 mps 752 mmHg 79%
    01:00 +20°C° 0 mm 1 mps 752 mmHg 80%
    02:00 +19°C° 0 mm 1 mps 751 mmHg 81%
    03:00 +17°C° 0 mm 0 mps 752 mmHg 81%
    04:00 +17°C° 0 mm 0 mps 752 mmHg 80%
    05:00 +17°C° 0 mm 0 mps 752 mmHg 79%
    06:00 +19°C° 0 mm 0 mps 752 mmHg 72%
    07:00 +21°C° 0 mm 0 mps 752 mmHg 64%
    08:00 +25°C° 0 mm 1 mps 752 mmHg 56%
    09:00 +27°C° 0 mm 1 mps 752 mmHg 48%
    10:00 +28°C° 0 mm 2 mps 753 mmHg 41%
    11:00 +30°C° 0 mm 2 mps 753 mmHg 33%
    12:00 +31°C° 0 mm 3 mps 753 mmHg 31%
    13:00 +33°C° 0 mm 3 mps 753 mmHg 29%
    14:00 +34°C° 0 mm 4 mps 752 mmHg 28%
    15:00 +33°C° 0 mm 4 mps 752 mmHg 30%
    16:00 +33°C° 0 mm 4 mps 752 mmHg 32%
    17:00 +32°C° 0 mm 5 mps 752 mmHg 34%
    18:00 +29°C° 0 mm 4 mps 752 mmHg 41%
    19:00 +26°C° 0 mm 3 mps 752 mmHg 49%
    20:00 +24°C° 0 mm 2 mps 753 mmHg 56%
    21:00 +23°C° 0 mm 2 mps 753 mmHg 62%
    22:00 +22°C° 0 mm 1 mps 753 mmHg 67%
    23:00 +21°C° 0 mm 1 mps 753 mmHg 72%

    21 July, Sunday

    Time Temperature Precipitation Wind Pressure Humidity
    00:00 +21°C° 0 mm 1 mps 753 mmHg 73%
    01:00 +19°C° 0 mm 0 mps 753 mmHg 74%
    02:00 +18°C° 0 mm 0 mps 753 mmHg 75%
    03:00 +18°C° 0 mm 0 mps 753 mmHg 75%
    04:00 +18°C° 0 mm 0 mps 753 mmHg 75%
    05:00 +18°C° 0 mm 0 mps 753 mmHg 75%
    06:00 +20°C° 0 mm 0 mps 753 mmHg 68%
    07:00 +22°C° 0 mm 0 mps 753 mmHg 60%
    08:00 +24°C° 0 mm 0 mps 753 mmHg 52%
    09:00 +26°C° 0 mm 0 mps 754 mmHg 45%
    10:00 +30°C° 0 mm 1 mps 754 mmHg 38%
    11:00 +32°C° 0 mm 1 mps 754 mmHg 31%
    12:00 +32°C° 0 mm 2 mps 753 mmHg 30%
    13:00 +34°C° 0 mm 2 mps 753 mmHg 28%
    14:00 +35°C° 0 mm 2 mps 753 mmHg 26%
    15:00 +35°C° 0 mm 3 mps 753 mmHg 28%
    16:00 +35°C° 0 mm 3 mps 753 mmHg 29%
    17:00 +34°C° 0 mm 4 mps 753 mmHg 30%
    18:00 +31°C° 0 mm 3 mps 753 mmHg 36%
    19:00 +28°C° 0 mm 3 mps 753 mmHg 42%
    20:00 +26°C° 0 mm 2 mps 753 mmHg 48%
    21:00 +25°C° 0 mm 2 mps 753 mmHg 51%
    22:00 +24°C° 0 mm 1 mps 753 mmHg 53%
    23:00 +23°C° 0 mm 1 mps 753 mmHg 56%

    22 July, Monday

    Time Temperature Precipitation Wind Pressure Humidity
    00:00 +23°C° 0 mm 1 mps 753 mmHg 57%
    01:00 +20°C° 0 mm 0 mps 753 mmHg 57%
    02:00 +20°C° 0 mm 0 mps 753 mmHg 58%
    03:00 +20°C° 0 mm 0 mps 753 mmHg 58%
    04:00 +20°C° 0 mm 0 mps 752 mmHg 58%
    05:00 +20°C° 0 mm 0 mps 752 mmHg 58%
    06:00 +24°C° 0 mm 1 mps 752 mmHg 53%
    07:00 +26°C° 0 mm 1 mps 752 mmHg 48%
    08:00 +28°C° 0 mm 1 mps 753 mmHg 43%
    09:00 +30°C° 0 mm 1 mps 753 mmHg 39%
    10:00 +32°C° 0 mm 1 mps 753 mmHg 35%
    11:00 +34°C° 0 mm 1 mps 753 mmHg 32%
    12:00 +34°C° 0 mm 1 mps 752 mmHg 31%
    13:00 +36°C° 0 mm 2 mps 752 mmHg 30%
    14:00 +36°C° 0 mm 2 mps 752 mmHg 30%
    15:00 +36°C° 0 mm 2 mps 751 mmHg 32%
    16:00 +35°C° 0 mm 2 mps 751 mmHg 35%
    17:00 +35°C° 0 mm 2 mps 751 mmHg 37%
    18:00 +32°C° 0 mm 2 mps 751 mmHg 41%
    19:00 +30°C° 0 mm 2 mps 750 mmHg 44%
    20:00 +28°C° 0 mm 2 mps 750 mmHg 48%
    21:00 +27°C° 0 mm 1 mps 750 mmHg 49%
    22:00 +26°C° 0 mm 1 mps 750 mmHg 51%
    23:00 +25°C° 0 mm 1 mps 750 mmHg 53%

    23 July, Tuesday

    Time Temperature Precipitation Wind Pressure Humidity
    00:00 +25°C° 0 mm 1 mps 750 mmHg 53%
    01:00 +25°C° 0 mm 1 mps 750 mmHg 54%
    02:00 +22°C° 0 mm 0 mps 750 mmHg 55%
    03:00 +22°C° 0 mm 0 mps 750 mmHg 57%
    04:00 +24°C° 0 mm 1 mps 750 mmHg 58%
    05:00 +23°C° 0 mm 1 mps 749 mmHg 60%
    06:00 +25°C° 0 mm 1 mps 749 mmHg 58%
    07:00 +27°C° 0 mm 2 mps 750 mmHg 56%
    08:00 +28°C° 0 mm 2 mps 750 mmHg 55%
    09:00 +30°C° 0 mm 3 mps 750 mmHg 51%
    10:00 +31°C° 0 mm 3 mps 750 mmHg 48%
    11:00 +34°C° 0 mm 4 mps 750 mmHg 44%
    12:00 +34°C° 0.1 mm 4 mps 749 mmHg 44%
    13:00 +34°C° 0.1 mm 4 mps 749 mmHg 43%
    14:00 +34°C° 0.1 mm 4 mps 749 mmHg 42%
    15:00 +34°C° 0.1 mm 5 mps 749 mmHg 46%
    16:00 +33°C° 0.1 mm 5 mps 749 mmHg 50%
    17:00 +32°C° 0.1 mm 5 mps 748 mmHg 54%
    18:00 +29°C° 0.1 mm 4 mps 748 mmHg 60%
    19:00 +27°C° 0.1 mm 3 mps 749 mmHg 67%
    20:00 +26°C° 0.1 mm 2 mps 749 mmHg 73%
    21:00 +25°C° 0.1 mm 2 mps 749 mmHg 76%
    22:00 +24°C° 0.1 mm 1 mps 749 mmHg 79%
    23:00 +23°C° 0.1 mm 1 mps 749 mmHg 83%
    Show more